Time,TemperatureF,DewpointF,PressureIn,WindDirection,WindDirectionDegrees,WindSpeedMPH,WindSpeedGustMPH,Humidity,HourlyPrecipIn,Conditions,Clouds,dailyrainin,SoftwareType,DateUTC
2013-01-10 00:03:00,38.0,-99.9,30.40,WNW,291,22.0,27.0,-999,-99.99,,,-99.99,,2013-01-10 05:03:00,
2013-01-10 00:12:00,38.0,-99.9,30.40,WNW,291,22.0,27.0,-999,-99.99,,,-99.99,,2013-01-10 05:12:00,
2013-01-10 00:23:00,38.0,-99.9,31.11,WNW,296,22.0,0.0,-999,-99.99,,,-99.99,,2013-01-10 05:23:00,
2013-01-10 00:33:00,38.0,-99.9,30.40,WNW,296,22.0,0.0,-999,-99.99,,,-99.99,,2013-01-10 05:33:00,
2013-01-10 00:43:00,38.0,-99.9,30.40,WNW,296,22.0,0.0,-999,-99.99,,,-99.99,,2013-01-10 05:43:00,
2013-01-10 00:53:00,37.0,-99.9,31.11,NW,311,21.0,26.0,-999,-99.99,,,-99.99,,2013-01-10 05:53:00,
2013-01-10 01:03:00,37.0,-99.9,31.11,NNW,330,23.0,26.0,-999,-99.99,,,-99.99,,2013-01-10 06:03:00,
2013-01-10 01:12:00,37.0,-99.9,30.40,NNW,330,23.0,26.0,-999,-99.99,,,-99.99,,2013-01-10 06:12:00,
2013-01-10 01:22:00,37.0,-99.9,30.40,NNW,330,23.0,26.0,-999,-99.99,,,-99.99,,2013-01-10 06:22:00,
2013-01-10 01:32:00,37.0,-99.9,30.40,NW,311,21.0,26.0,-999,-99.99,,,-99.99,,2013-01-10 06:32:00,
2013-01-10 01:40:00,36.0,-99.9,30.42,NNW,340,20.0,22.0,-999,-99.99,,,-99.99,,2013-01-10 06:40:00,
2013-01-10 01:42:00,37.0,-99.9,30.40,NW,311,21.0,26.0,-999,-99.99,,,-99.99,,2013-01-10 06:42:00,
2013-01-10 01:53:00,37.0,-99.9,30.40,NW,311,21.0,26.0,-999,-99.99,,,-99.99,,2013-01-10 06:53:00,
2013-01-10 02:02:00,36.0,-99.9,31.13,NNW,340,20.0,22.0,-999,-99.99,,,-99.99,,2013-01-10 07:02:00,
2013-01-10 02:12:00,36.0,-99.9,30.42,NNW,340,20.0,22.0,-999,-99.99,,,-99.99,,2013-01-10 07:12:00,
2013-01-10 02:22:00,36.0,-99.9,30.42,NNW,340,20.0,22.0,-999,-99.99,,,-99.99,,2013-01-10 07:22:00,
2013-01-10 02:32:00,36.0,-99.9,30.42,NNW,340,20.0,22.0,-999,-99.99,,,-99.99,,2013-01-10 07:32:00,
2013-01-10 02:52:00,36.0,-99.9,31.12,North,353,21.0,26.0,-999,-99.99,,,-99.99,,2013-01-10 07:52:00,
2013-01-10 03:02:00,35.0,-99.9,31.12,North,7,18.0,22.0,-999,-99.99,,,-99.99,,2013-01-10 08:02:00,
2013-01-10 03:12:00,35.0,-99.9,30.41,North,7,18.0,22.0,-999,-99.99,,,-99.99,,2013-01-10 08:12:00,
2013-01-10 03:22:00,36.0,-99.9,31.12,North,353,21.0,26.0,-999,-99.99,,,-99.99,,2013-01-10 08:22:00,
2013-01-10 03:33:00,36.0,-99.9,31.12,North,353,21.0,26.0,-999,-99.99,,,-99.99,,2013-01-10 08:33:00,
2013-01-10 03:42:00,36.0,-99.9,30.41,North,353,21.0,26.0,-999,-99.99,,,-99.99,,2013-01-10 08:42:00,
2013-01-10 03:53:00,35.0,-99.9,31.14,NE,41,12.0,23.0,-999,-99.99,,,-99.99,,2013-01-10 08:53:00,
2013-01-10 04:02:00,33.0,-99.9,31.15,ENE,63,7.0,11.0,-999,-99.99,,,-99.99,,2013-01-10 09:02:00,
2013-01-10 04:12:00,33.0,-99.9,30.44,ENE,63,7.0,11.0,-999,-99.99,,,-99.99,,2013-01-10 09:12:00,
2013-01-10 04:22:00,35.0,-99.9,31.14,NE,41,12.0,23.0,-999,-99.99,,,-99.99,,2013-01-10 09:22:00,
2013-01-10 04:32:00,35.0,-99.9,30.43,NE,41,12.0,23.0,-999,-99.99,,,-99.99,,2013-01-10 09:32:00,
2013-01-10 04:43:00,30.0,-99.9,31.18,SSW,200,5.0,12.0,-999,-99.99,,,-99.99,,2013-01-10 09:43:00,
2013-01-10 04:53:00,30.0,-99.9,30.47,SSW,200,5.0,12.0,-999,-99.99,,,-99.99,,2013-01-10 09:53:00,
2013-01-10 05:03:00,29.0,-99.9,31.20,SSW,212,3.0,6.0,-999,-99.99,,,-99.99,,2013-01-10 10:03:00,
2013-01-10 05:12:00,29.0,-99.9,30.49,SSW,212,3.0,6.0,-999,-99.99,,,-99.99,,2013-01-10 10:12:00,
2013-01-10 05:22:00,30.0,-99.9,31.18,SSW,200,5.0,12.0,-999,-99.99,,,-99.99,,2013-01-10 10:22:00,
2013-01-10 05:33:00,30.0,-99.9,31.18,SSW,200,5.0,12.0,-999,-99.99,,,-99.99,,2013-01-10 10:33:00,
2013-01-10 05:43:00,30.0,-99.9,30.47,SSW,200,5.0,12.0,-999,-99.99,,,-99.99,,2013-01-10 10:43:00,
2013-01-10 05:53:00,30.0,-99.9,30.50,SSW,195,4.0,6.0,-999,-99.99,,,-99.99,,2013-01-10 10:53:00,
2013-01-10 06:03:00,30.0,-99.9,31.20,SSW,195,4.0,6.0,-999,-99.99,,,-99.99,,2013-01-10 11:03:00,
2013-01-10 06:12:00,30.0,-99.9,30.49,SSW,195,4.0,6.0,-999,-99.99,,,-99.99,,2013-01-10 11:12:00,
2013-01-10 06:23:00,30.0,-99.9,30.49,SSW,195,4.0,6.0,-999,-99.99,,,-99.99,,2013-01-10 11:23:00,
2013-01-10 06:33:00,30.0,-99.9,30.50,SSW,195,4.0,6.0,-999,-99.99,,,-99.99,,2013-01-10 11:33:00,
2013-01-10 06:43:00,30.0,-99.9,30.50,SSW,195,4.0,6.0,-999,-99.99,,,-99.99,,2013-01-10 11:43:00,
2013-01-10 06:53:00,30.0,-99.9,30.49,South,188,5.0,9.0,-999,-99.99,,,-99.99,,2013-01-10 11:53:00,
2013-01-10 07:03:00,30.0,-99.9,31.20,South,187,5.0,9.0,-999,-99.99,,,-99.99,,2013-01-10 12:03:00,
2013-01-10 07:12:00,30.0,-99.9,30.49,South,187,5.0,9.0,-999,-99.99,,,-99.99,,2013-01-10 12:12:00,
2013-01-10 07:22:00,30.0,-99.9,31.20,South,188,5.0,9.0,-999,-99.99,,,-99.99,,2013-01-10 12:22:00,
2013-01-10 07:33:00,30.0,-99.9,30.49,South,188,5.0,9.0,-999,-99.99,,,-99.99,,2013-01-10 12:33:00,
2013-01-10 07:40:00,29.0,-99.9,30.51,South,186,3.0,6.0,-999,-99.99,,,-99.99,,2013-01-10 12:40:00,
2013-01-10 07:43:00,30.0,-99.9,31.20,South,188,5.0,9.0,-999,-99.99,,,-99.99,,2013-01-10 12:43:00,
2013-01-10 07:53:00,30.0,-99.9,30.49,South,188,5.0,9.0,-999,-99.99,,,-99.99,,2013-01-10 12:53:00,
2013-01-10 08:02:00,29.0,-99.9,31.22,South,186,3.0,6.0,-999,-99.99,,,-99.99,,2013-01-10 13:02:00,
2013-01-10 08:12:00,29.0,-99.9,30.51,South,186,3.0,6.0,-999,-99.99,,,-99.99,,2013-01-10 13:12:00,
2013-01-10 08:22:00,29.0,-99.9,30.51,South,186,3.0,6.0,-999,-99.99,,,-99.99,,2013-01-10 13:22:00,
2013-01-10 08:33:00,29.0,-99.9,30.51,South,186,3.0,6.0,-999,-99.99,,,-99.99,,2013-01-10 13:33:00,
2013-01-10 08:53:00,29.0,-99.9,30.52,South,180,4.0,7.0,-999,-99.99,,,-99.99,,2013-01-10 13:53:00,
2013-01-10 09:03:00,30.0,-99.9,31.23,South,178,4.0,7.0,-999,-99.99,,,-99.99,,2013-01-10 14:03:00,
2013-01-10 09:12:00,30.0,-99.9,30.52,South,178,4.0,7.0,-999,-99.99,,,-99.99,,2013-01-10 14:12:00,
2013-01-10 09:23:00,29.0,-99.9,30.52,South,180,4.0,7.0,-999,-99.99,,,-99.99,,2013-01-10 14:23:00,
2013-01-10 09:33:00,29.0,-99.9,30.52,South,180,4.0,7.0,-999,-99.99,,,-99.99,,2013-01-10 14:33:00,
2013-01-10 09:44:00,29.0,-99.9,31.23,South,180,4.0,7.0,-999,-99.99,,,-99.99,,2013-01-10 14:44:00,
2013-01-10 09:53:00,29.0,-99.9,30.52,South,180,4.0,7.0,-999,-99.99,,,-99.99,,2013-01-10 14:53:00,
2013-01-10 10:03:00,33.0,-99.9,31.21,SSW,201,5.0,7.0,-999,-99.99,,,-99.99,,2013-01-10 15:03:00,
2013-01-10 10:12:00,33.0,-99.9,30.50,SSW,201,5.0,7.0,-999,-99.99,,,-99.99,,2013-01-10 15:12:00,
2013-01-10 10:23:00,32.0,-99.9,31.21,South,184,5.0,8.0,-999,-99.99,,,-99.99,,2013-01-10 15:23:00,
2013-01-10 10:33:00,32.0,-99.9,31.21,South,184,5.0,8.0,-999,-99.99,,,-99.99,,2013-01-10 15:33:00,
2013-01-10 10:40:00,36.0,-99.9,30.49,SSW,198,5.0,10.0,-999,-99.99,,,-99.99,,2013-01-10 15:40:00,
2013-01-10 10:43:00,32.0,-99.9,31.21,South,184,5.0,8.0,-999,-99.99,,,-99.99,,2013-01-10 15:43:00,
2013-01-10 10:53:00,37.0,-99.9,31.19,SSW,208,4.0,10.0,-999,-99.99,,,-99.99,,2013-01-10 15:53:00,
2013-01-10 11:03:00,36.0,-99.9,30.48,SSW,198,5.0,10.0,-999,-99.99,,,-99.99,,2013-01-10 16:03:00,
2013-01-10 11:13:00,36.0,-99.9,30.49,SSW,198,5.0,10.0,-999,-99.99,,,-99.99,,2013-01-10 16:13:00,
2013-01-10 11:23:00,36.0,-99.9,30.49,SSW,198,5.0,10.0,-999,-99.99,,,-99.99,,2013-01-10 16:23:00,
2013-01-10 11:33:00,36.0,-99.9,30.49,SSW,198,5.0,10.0,-999,-99.99,,,-99.99,,2013-01-10 16:33:00,
2013-01-10 11:53:00,36.0,-99.9,31.18,SSW,195,7.0,14.0,-999,-99.99,,,-99.99,,2013-01-10 16:53:00,
2013-01-10 12:03:00,36.0,-99.9,31.18,South,189,3.0,13.0,-999,-99.99,,,-99.99,,2013-01-10 17:03:00,
2013-01-10 12:13:00,36.0,-99.9,30.47,South,189,3.0,13.0,-999,-99.99,,,-99.99,,2013-01-10 17:13:00,
2013-01-10 12:23:00,36.0,-99.9,31.18,SSW,195,7.0,14.0,-999,-99.99,,,-99.99,,2013-01-10 17:23:00,
2013-01-10 12:33:00,36.0,-99.9,31.18,SSW,195,7.0,14.0,-999,-99.99,,,-99.99,,2013-01-10 17:33:00,
2013-01-10 12:43:00,36.0,-99.9,30.47,SSW,195,7.0,14.0,-999,-99.99,,,-99.99,,2013-01-10 17:43:00,
2013-01-10 12:53:00,38.0,-99.9,30.44,South,171,3.0,13.0,-999,-99.99,,,-99.99,,2013-01-10 17:53:00,
2013-01-10 13:04:00,38.0,-99.9,31.15,South,179,7.0,13.0,-999,-99.99,,,-99.99,,2013-01-10 18:04:00,
2013-01-10 13:12:00,38.0,-99.9,30.44,South,179,7.0,13.0,-999,-99.99,,,-99.99,,2013-01-10 18:12:00,
2013-01-10 13:23:00,38.0,-99.9,31.15,South,171,3.0,13.0,-999,-99.99,,,-99.99,,2013-01-10 18:23:00,
2013-01-10 13:33:00,38.0,-99.9,30.44,South,171,3.0,13.0,-999,-99.99,,,-99.99,,2013-01-10 18:33:00,
2013-01-10 13:44:00,38.0,-99.9,30.44,South,171,3.0,13.0,-999,-99.99,,,-99.99,,2013-01-10 18:44:00,
2013-01-10 13:53:00,38.0,-99.9,31.13,South,188,6.0,14.0,-999,-99.99,,,-99.99,,2013-01-10 18:53:00,
2013-01-10 14:03:00,39.0,-99.9,31.12,South,173,3.0,11.0,-999,-99.99,,,-99.99,,2013-01-10 19:03:00,
2013-01-10 14:13:00,39.0,-99.9,30.41,South,173,3.0,11.0,-999,-99.99,,,-99.99,,2013-01-10 19:13:00,
2013-01-10 14:23:00,38.0,-99.9,31.13,South,188,6.0,14.0,-999,-99.99,,,-99.99,,2013-01-10 19:23:00,
2013-01-10 14:33:00,38.0,-99.9,31.13,South,188,6.0,14.0,-999,-99.99,,,-99.99,,2013-01-10 19:33:00,
2013-01-10 14:44:00,38.0,-99.9,31.13,South,188,6.0,14.0,-999,-99.99,,,-99.99,,2013-01-10 19:44:00,
2013-01-10 14:54:00,38.0,-99.9,30.42,South,188,6.0,14.0,-999,-99.99,,,-99.99,,2013-01-10 19:54:00,
2013-01-10 15:03:00,41.0,-99.9,31.07,SSE,168,5.0,12.0,-999,-99.99,,,-99.99,,2013-01-10 20:03:00,
2013-01-10 15:13:00,41.0,-99.9,30.37,SSE,168,5.0,12.0,-999,-99.99,,,-99.99,,2013-01-10 20:13:00,
2013-01-10 15:24:00,41.0,-99.9,30.37,SSE,168,5.0,12.0,-999,-99.99,,,-99.99,,2013-01-10 20:24:00,
2013-01-10 15:33:00,41.0,-99.9,31.08,South,173,5.0,13.0,-999,-99.99,,,-99.99,,2013-01-10 20:33:00,
2013-01-10 15:43:00,41.0,-99.9,30.38,South,173,5.0,13.0,-999,-99.99,,,-99.99,,2013-01-10 20:43:00,
2013-01-10 15:53:00,41.0,-99.9,30.38,South,173,5.0,13.0,-999,-99.99,,,-99.99,,2013-01-10 20:53:00,
2013-01-10 16:04:00,41.0,-99.9,31.04,SE,137,5.0,9.0,-999,-99.99,,,-99.99,,2013-01-10 21:04:00,
2013-01-10 16:13:00,41.0,-99.9,30.34,SE,137,5.0,9.0,-999,-99.99,,,-99.99,,2013-01-10 21:13:00,
2013-01-10 16:23:00,41.0,-99.9,31.04,SE,137,5.0,12.0,-999,-99.99,,,-99.99,,2013-01-10 21:23:00,
2013-01-10 16:33:00,41.0,-99.9,30.34,SE,137,5.0,12.0,-999,-99.99,,,-99.99,,2013-01-10 21:33:00,
2013-01-10 16:44:00,41.0,-99.9,30.34,SE,137,5.0,12.0,-999,-99.99,,,-99.99,,2013-01-10 21:44:00,
2013-01-10 16:53:00,41.0,-99.9,31.04,SE,137,5.0,12.0,-999,-99.99,,,-99.99,,2013-01-10 21:53:00,
2013-01-10 17:04:00,40.0,-99.9,30.34,SE,143,4.0,7.0,-999,-99.99,,,-99.99,,2013-01-10 22:04:00,
2013-01-10 17:13:00,40.0,-99.9,30.33,SE,143,4.0,7.0,-999,-99.99,,,-99.99,,2013-01-10 22:13:00,
2013-01-10 17:27:00,40.0,-99.9,30.32,SE,129,3.0,11.0,-999,-99.99,,,-99.99,,2013-01-10 22:27:00,
2013-01-10 17:34:00,40.0,-99.9,30.32,SE,129,3.0,11.0,-999,-99.99,,,-99.99,,2013-01-10 22:34:00,
2013-01-10 17:44:00,40.0,-99.9,31.02,SE,129,3.0,11.0,-999,-99.99,,,-99.99,,2013-01-10 22:44:00,
2013-01-10 18:03:00,39.0,-99.9,31.02,ESE,114,2.0,6.0,-999,-99.99,,,-99.99,,2013-01-10 23:03:00,
2013-01-10 18:13:00,39.0,-99.9,30.32,ESE,114,2.0,6.0,-999,-99.99,,,-99.99,,2013-01-10 23:13:00,
2013-01-10 18:23:00,39.0,-99.9,31.02,SSE,162,4.0,9.0,-999,-99.99,,,-99.99,,2013-01-10 23:23:00,
2013-01-10 18:33:00,39.0,-99.9,30.32,SSE,162,4.0,9.0,-999,-99.99,,,-99.99,,2013-01-10 23:33:00,
2013-01-10 18:43:00,39.0,-99.9,30.32,SSE,162,4.0,9.0,-999,-99.99,,,-99.99,,2013-01-10 23:43:00,
2013-01-10 18:53:00,39.0,-99.9,30.32,SSE,162,4.0,9.0,-999,-99.99,,,-99.99,,2013-01-10 23:53:00,
2013-01-10 19:03:00,40.0,-99.9,30.99,SE,146,3.0,11.0,-999,-99.99,,,-99.99,,2013-01-11 00:03:00,
2013-01-10 19:13:00,40.0,-99.9,30.29,SE,146,3.0,11.0,-999,-99.99,,,-99.99,,2013-01-11 00:13:00,
2013-01-10 19:23:00,40.0,-99.9,30.98,SSE,148,5.0,14.0,-999,-99.99,,,-99.99,,2013-01-11 00:23:00,
2013-01-10 19:33:00,40.0,-99.9,30.28,SSE,148,5.0,14.0,-999,-99.99,,,-99.99,,2013-01-11 00:33:00,
2013-01-10 19:43:00,40.0,-99.9,30.28,SSE,148,5.0,14.0,-999,-99.99,,,-99.99,,2013-01-11 00:43:00,
2013-01-10 19:53:00,40.0,-99.9,30.28,SSE,148,5.0,14.0,-999,-99.99,,,-99.99,,2013-01-11 00:53:00,
2013-01-10 20:03:00,39.0,-99.9,30.96,SE,139,4.0,16.0,-999,-99.99,,,-99.99,,2013-01-11 01:03:00,
2013-01-10 20:13:00,39.0,-99.9,30.26,SE,139,4.0,16.0,-999,-99.99,,,-99.99,,2013-01-11 01:13:00,
2013-01-10 20:24:00,39.0,-99.9,30.26,SE,139,4.0,16.0,-999,-99.99,,,-99.99,,2013-01-11 01:24:00,
2013-01-10 20:34:00,39.0,-99.9,30.93,SE,131,7.0,16.0,-999,-99.99,,,-99.99,,2013-01-11 01:34:00,
2013-01-10 20:44:00,39.0,-99.9,30.23,SE,131,7.0,16.0,-999,-99.99,,,-99.99,,2013-01-11 01:44:00,
2013-01-10 20:53:00,39.0,-99.9,30.93,SE,131,7.0,16.0,-999,-99.99,,,-99.99,,2013-01-11 01:53:00,
2013-01-10 21:03:00,39.0,-99.9,30.91,SE,146,10.0,18.0,-999,-99.99,,,-99.99,,2013-01-11 02:03:00,
2013-01-10 21:13:00,39.0,-99.9,30.21,SE,146,10.0,18.0,-999,-99.99,,,-99.99,,2013-01-11 02:13:00,
2013-01-10 21:24:00,39.0,-99.9,30.89,SE,138,9.0,18.0,-999,-99.99,,,-99.99,,2013-01-11 02:24:00,
2013-01-10 21:33:00,39.0,-99.9,30.19,SE,138,9.0,18.0,-999,-99.99,,,-99.99,,2013-01-11 02:33:00,
2013-01-10 21:44:00,39.0,-99.9,30.19,SE,138,9.0,18.0,-999,-99.99,,,-99.99,,2013-01-11 02:44:00,
2013-01-10 21:54:00,39.0,-99.9,30.89,SE,138,9.0,18.0,-999,-99.99,,,-99.99,,2013-01-11 02:54:00,
2013-01-10 22:03:00,39.0,-99.9,30.88,SSE,154,9.0,19.0,-999,-99.99,,,-99.99,,2013-01-11 03:03:00,
2013-01-10 22:13:00,39.0,-99.9,30.18,SSE,154,9.0,19.0,-999,-99.99,,,-99.99,,2013-01-11 03:13:00,
2013-01-10 22:23:00,39.0,-99.9,30.86,SSE,153,7.0,20.0,-999,-99.99,,,-99.99,,2013-01-11 03:23:00,
2013-01-10 22:34:00,39.0,-99.9,30.16,SSE,153,7.0,20.0,-999,-99.99,,,-99.99,,2013-01-11 03:34:00,
2013-01-10 22:40:00,39.0,-99.9,30.12,SSE,154,11.0,21.0,-999,-99.99,,,-99.99,,2013-01-11 03:40:00,
2013-01-10 22:43:00,39.0,-99.9,30.16,SSE,153,7.0,20.0,-999,-99.99,,,-99.99,,2013-01-11 03:43:00,
2013-01-10 22:53:00,39.0,-99.9,30.16,SSE,153,7.0,20.0,-999,-99.99,,,-99.99,,2013-01-11 03:53:00,
2013-01-10 23:03:00,39.0,-99.9,30.82,SSE,154,11.0,21.0,-999,-99.99,,,-99.99,,2013-01-11 04:03:00,
2013-01-10 23:12:00,39.0,-99.9,30.12,SSE,154,11.0,21.0,-999,-99.99,,,-99.99,,2013-01-11 04:12:00,
2013-01-10 23:23:00,39.0,-99.9,30.12,SSE,154,11.0,21.0,-999,-99.99,,,-99.99,,2013-01-11 04:23:00,
2013-01-10 23:33:00,39.0,-99.9,30.12,SSE,154,11.0,21.0,-999,-99.99,,,-99.99,,2013-01-11 04:33:00,
2013-01-10 23:53:00,39.0,-99.9,30.82,SSE,156,9.0,25.0,-999,-99.99,,,-99.99,,2013-01-11 04:53:00,